Accueil
METAR-TAF:

METAR-TAF

Aéroports :

Dübendorf, Suisse

latitude: 47-23-55N, longitude: 8-38-53E, altitude: 448 m

Observation

Le bulletin a été fait il y a 27 minutes, à 19:50 UTC
Vent calme
Température 4°C
Humidité 87%
Pression 1019 hPa
Visibilité 10 km ou plus
Nuages épars à une hauteur de 9700 ft
Nuages épars à une hauteur de 11000 ft
Nuages fragmentés à une hauteur de 14000 ft

METAR: LSMD 271950Z AUTO 00000KT 9999NDV SCT097 SCT110 BKN140 04/02 Q1019 RMK

Heure: 21:17 (20:17 UTC)


TAF: absent

Observations et prévisions météorologiques de plus de 4000 aéroports (messages METAR et TAF).

Les stations disponibles sont représentées par des disques jaunes et rouges sur la carte.

Passer la souris dessus pour voir le nom de la station.

Cliquer dessus pour voir les observations et prévisions météorologiques.

Pour changer de carte: cliquez sur les boutons verts avec une croix noire pour zoomer, sur le bouton vert avec un tiret pour effectuer un zoom arrière, ou sur les flèches vertes pour les cartes adjacentes.


METAR-TAF: